Terug naar catalogus

STARLINK-6338

ActiefCommunicatieVLEO
NORAD 57364·PAYLOAD·🇺🇸 United States

Gelanceerd Jul 16, 2023 vanaf Cape Canaveral Space Force Station

Loading…

Volgende Passages (komende 24 uur)

TLE

VersSource: CelesTrak SupGP

Epoch: Sep 15, 2026, 02:40 UTC

1 57364C 23099AN  26258.11159722 -.00021747  00000+0 -78779-3 0  2580
2 57364  43.0005 251.7095 0001451 266.0347  16.0310 15.27583755    17

Volg STARLINK-6338 in realtime met AllMySat

Download on the App Store